K5GHS-1 Weather Reports


time (UTC)temp
C
wind
direction
speed
KPH
gust
KPH
rain 1hr
cm
rain 24hr
cm
rain mn
cm
humidity
%
barometer
mb
20260505231013 29 62 1.6 1.6 0.00 0.00 0.00 55 1002.6
20260505230510 29 76 0.0 1.6 0.00 0.00 0.00 53 1002.5
20260505230007 29 69 0.0 1.6 0.00 0.00 0.00 51 1002.4
20260505225504 30 75 0.0 1.6 0.00 0.00 0.00 51 1002.3
20260505224959 30 73 0.0 4.8 0.00 0.00 0.00 49 1002.4
20260505224456 31 73 0.0 0.0 0.00 0.00 0.00 48 1002.5
20260505223954 31 41 1.6 8.0 0.00 0.00 0.00 47 1002.3
20260505223450 32 60 0.0 0.0 0.00 0.00 0.00 46 1002.4
20260505222947 33 76 0.0 1.6 0.00 0.00 0.00 48 1002.0
20260505222443 32 101 1.6 3.2 0.00 0.00 0.00 52 1001.6
20260505221939 32 69 1.6 4.8 0.00 0.00 0.00 51 1001.7
20260505221437 33 79 3.2 3.2 0.00 0.00 0.00 50 1001.6
20260505220934 33 66 0.0 1.6 0.00 0.00 0.00 53 1001.5
20260505220430 32 67 0.0 0.0 0.00 0.00 0.00 53 1001.5
20260505215928 32 72 0.0 3.2 0.00 0.00 0.00 55 1001.8
20260505215426 32 75 1.6 1.6 0.00 0.00 0.00 54 1002.0
20260505214924 32 202 3.2 4.8 0.00 0.00 0.00 53 1001.9
20260505214421 33 77 0.0 1.6 0.00 0.00 0.00 52 1002.0
20260505213918 33 217 1.6 8.0 0.00 0.00 0.00 51 1002.2
20260505213416 33 71 0.0 1.6 0.00 0.00 0.00 53 1002.0
20260505212912 33 85 1.6 8.0 0.00 0.00 0.00 52 1002.0
20260505212409 32 81 0.0 1.6 0.00 0.00 0.00 52 1002.1
20260505211905 32 104 0.0 4.8 0.00 0.00 0.00 53 1002.3
20260505211403 32 103 1.6 4.8 0.00 0.00 0.00 54 1002.2
20260505210859 32 84 0.0 1.6 0.00 0.00 0.00 54 1002.4
20260505210356 32 221 1.6 3.2 0.00 0.00 0.00 56 1002.3
20260505205853 32 164 3.2 8.0 0.00 0.00 0.00 55 1002.1
20260505205351 32 87 1.6 3.2 0.00 0.00 0.00 58 1002.4
20260505204848 32 155 3.2 8.0 0.00 0.00 0.00 58 1002.3
20260505204346 32 80 0.0 4.8 0.00 0.00 0.00 58 1002.4
20260505203843 32 85 0.0 1.6 0.00 0.00 0.00 59 1002.6
20260505203339 32 248 1.6 3.2 0.00 0.00 0.00 58 1002.8
20260505202836 32 76 1.6 3.2 0.00 0.00 0.00 59 1003.1
20260505202332 32 155 0.0 9.7 0.00 0.00 0.00 57 1002.8
20260505201829 31 80 0.0 3.2 0.00 0.00 0.00 60 1002.6
20260505201326 31 136 1.6 3.2 0.00 0.00 0.00 61 1002.7
20260505200824 31 91 3.2 4.8 0.00 0.00 0.00 60 1002.8
20260505200321 31 190 3.2 3.2 0.00 0.00 0.00 59 1002.7
20260505195816 31 93 0.0 3.2 0.00 0.00 0.00 60 1002.8
20260505195314 31 79 0.0 1.6 0.00 0.00 0.00 60 1003.0
20260505194811 31 289 1.6 3.2 0.00 0.00 0.00 60 1002.8
20260505194308 31 109 1.6 3.2 0.00 0.00 0.00 59 1002.8
20260505193803 31 70 0.0 4.8 0.00 0.00 0.00 61 1003.1
20260505193301 31 43 1.6 3.2 0.00 0.00 0.00 62 1003.0
20260505192759 30 211 3.2 4.8 0.00 0.00 0.00 61 1002.7
20260505192257 30 89 0.0 4.8 0.00 0.00 0.00 62 1002.7
20260505191754 30 99 1.6 3.2 0.00 0.00 0.00 64 1002.8
20260505191253 30 95 4.8 8.0 0.00 0.00 0.00 63 1003.1
20260505190749 30 117 4.8 9.7 0.00 0.00 0.00 64 1002.7
20260505190244 30 197 4.8 9.7 0.00 0.00 0.00 64 1002.7
20260505185741 29 124 1.6 9.7 0.00 0.00 0.00 66 1003.1
20260505185237 29 140 1.6 3.2 0.00 0.00 0.00 66 1003.0
20260505184733 28 122 6.4 11.3 0.00 0.00 0.00 66 1003.1
20260505184231 28 144 3.2 8.0 0.00 0.00 0.00 66 1003.0
20260505183727 28 95 1.6 1.6 0.00 0.00 0.00 67 1003.2
20260505183225 28 85 1.6 8.0 0.00 0.00 0.00 68 1003.1
20260505182721 28 128 1.6 4.8 0.00 0.00 0.00 68 1003.2
20260505182218 28 95 1.6 14.5 0.00 0.00 0.00 68 1003.1
20260505181714 28 64 1.6 4.8 0.00 0.00 0.00 68 1003.1
20260505181212 28 43 1.6 9.7 0.00 0.00 0.00 67 1003.3
20260505180708 29 85 1.6 3.2 0.00 0.00 0.00 66 1003.1
20260505180205 28 46 3.2 8.0 0.00 0.00 0.00 66 1003.1
20260505175701 28 149 1.6 4.8 0.00 0.00 0.00 67 1003.1
20260505175157 28 82 1.6 4.8 0.00 0.00 0.00 68 1003.3
20260505174654 27 81 3.2 4.8 0.00 0.00 0.00 69 1003.0
20260505174150 27 49 4.8 11.3 0.00 0.00 0.00 69 1003.3
20260505173646 27 99 1.6 3.2 0.00 0.00 0.00 70 1003.2
20260505173143 27 112 1.6 4.8 0.00 0.00 0.00 70 1003.3
20260505172641 27 67 3.2 4.8 0.00 0.00 0.00 70 1003.3
20260505172137 27 130 1.6 9.7 0.00 0.00 0.00 70 1003.2
20260505171632 27 140 1.6 8.0 0.00 0.00 0.00 70 1003.2
20260505171130 27 83 0.0 4.8 0.00 0.00 0.00 71 1003.0
20260505170627 27 146 3.2 4.8 0.00 0.00 0.00 70 1003.5
20260505170123 27 108 0.0 1.6 0.00 0.00 0.00 71 1003.3
20260505165618 27 77 3.2 4.8 0.00 0.00 0.00 71 1003.3
20260505165114 27 109 6.4 9.7 0.00 0.00 0.00 70 1003.2
20260505164610 26 95 0.0 1.6 0.00 0.00 0.00 72 1003.5
20260505164108 26 249 3.2 4.8 0.00 0.00 0.00 72 1003.4
20260505163606 26 87 0.0 8.0 0.00 0.00 0.00 73 1003.5
20260505163103 26 102 3.2 4.8 0.00 0.00 0.00 73 1003.2
20260505162600 26 75 1.6 4.8 0.00 0.00 0.00 73 1003.5
20260505162058 26 88 1.6 12.9 0.00 0.00 0.00 73 1003.1
20260505161555 26 125 6.4 9.7 0.00 0.00 0.00 72 1003.2
20260505161052 26 296 1.6 4.8 0.00 0.00 0.00 73 1003.1
20260505160550 25 44 1.6 9.7 0.00 0.00 0.00 74 1003.0
20260505153026 25 45 1.6 4.8 0.00 0.00 0.00 76 1002.6
20260505152523 25 73 1.6 9.7 0.00 0.00 0.00 77 1002.4
20260505152019 25 66 1.6 4.8 0.00 0.00 0.00 77 1002.8
20260505151514 25 199 4.8 8.0 0.00 0.00 0.00 77 1002.8
20260505151012 25 82 3.2 11.3 0.00 0.00 0.00 77 1002.8
20260505150508 25 133 1.6 9.7 0.00 0.00 0.00 76 1002.8
20260505140433 23 101 1.6 4.8 0.00 0.00 0.00 82 1003.0
20260505124847 22 21 3.2 12.9 0.00 0.00 0.00 84 1002.7
20260505124343 22 127 1.6 11.3 0.00 0.00 0.00 84 1002.7
20260505123839 22 151 4.8 8.0 0.00 0.00 0.00 84 1002.5
20260505123336 22 134 3.2 9.7 0.00 0.00 0.00 84 1002.3
20260505122832 22 152 3.2 11.3 0.00 0.00 0.00 84 1002.4
20260505122330 22 73 0.0 3.2 0.00 0.00 0.00 84 1002.4
20260505121826 22 79 1.6 3.2 0.00 0.00 0.00 84 1002.3
20260505121324 22 143 1.6 3.2 0.00 0.00 0.00 84 1002.2
20260505120819 22 208 1.6 4.8 0.00 0.00 0.00 84 1002.2
20260505120316 22 90 1.6 1.6 0.00 0.00 0.00 84 1002.3
20260505115814 22 85 1.6 3.2 0.00 0.00 0.00 84 1002.1
20260505115312 22 105 3.2 4.8 0.00 0.00 0.00 84 1002.2
20260505114809 22 57 1.6 3.2 0.00 0.00 0.00 84 1002.2
20260505114306 22 148 6.4 9.7 0.00 0.00 0.00 84 1002.0
20260505113802 22 159 6.4 11.3 0.00 0.00 0.00 84 1002.2
20260505113259 22 254 1.6 9.7 0.00 0.00 0.00 84 1002.0
20260505112754 22 82 1.6 3.2 0.00 0.00 0.00 85 1002.0
20260505112252 21 123 3.2 4.8 0.00 0.00 0.00 85 1001.8
20260505111747 21 117 1.6 3.2 0.00 0.00 0.00 86 1002.0
20260505111243 21 104 0.0 3.2 0.00 0.00 0.00 86 1001.8
20260505110739 21 79 1.6 8.0 0.00 0.00 0.00 85 1001.9
20260505110237 21 87 1.6 4.8 0.00 0.00 0.00 85 1001.9
20260505102212 22 127 6.4 9.7 0.00 0.00 0.00 84 1001.9
20260505101711 22 116 1.6 3.2 0.00 0.00 0.00 84 1001.8
20260505101206 22 82 0.0 4.8 0.00 0.00 0.00 84 1002.1
20260505100703 22 154 4.8 4.8 0.00 0.00 0.00 85 1001.9
20260505100200 22 79 1.6 3.2 0.00 0.00 0.00 85 1002.0
20260505095655 22 128 3.2 4.8 0.00 0.00 0.00 85 1001.8
20260505095154 22 115 4.8 4.8 0.00 0.00 0.00 85 1001.9
20260505094649 21 69 1.6 3.2 0.00 0.00 0.00 85 1002.1
20260505094146 21 146 8.0 12.9 0.00 0.00 0.00 85 1002.0
20260505093642 21 66 1.6 4.8 0.00 0.00 0.00 85 1002.1
20260505093140 21 95 0.0 3.2 0.00 0.00 0.00 85 1002.1
20260505092636 21 173 3.2 4.8 0.00 0.00 0.00 85 1002.3
20260505092135 21 70 1.6 3.2 0.00 0.00 0.00 85 1002.2
20260505091632 21 80 1.6 3.2 0.00 0.00 0.00 86 1002.6
20260505091130 21 106 1.6 4.8 0.00 0.00 0.00 86 1002.4
20260505090627 21 83 1.6 1.6 0.00 0.00 0.00 86 1002.4
20260505090125 21 118 4.8 4.8 0.00 0.00 0.00 86 1002.2
20260505085622 21 127 1.6 3.2 0.00 0.00 0.00 86 1002.3
20260505085120 21 104 1.6 3.2 0.00 0.00 0.00 86 1002.3
20260505084618 21 107 1.6 8.0 0.00 0.00 0.00 86 1002.2
20260505084116 21 113 1.6 3.2 0.00 0.00 0.00 85 1002.4
20260505083613 21 119 3.2 14.5 0.00 0.00 0.00 85 1002.5
20260505083110 21 88 1.6 3.2 0.00 0.00 0.00 85 1002.4
20260505082605 21 79 1.6 8.0 0.00 0.00 0.00 85 1002.4
20260505082103 21 112 4.8 9.7 0.00 0.00 0.00 85 1002.4
20260505081559 21 97 0.0 4.8 0.00 0.00 0.00 85 1002.4
20260505081056 21 151 1.6 9.7 0.00 0.00 0.00 84 1002.3
20260505080552 21 134 3.2 4.8 0.00 0.00 0.00 84 1002.3
20260505080049 21 159 1.6 4.8 0.00 0.00 0.00 84 1002.6
20260505075545 21 90 1.6 4.8 0.00 0.00 0.00 84 1002.6
20260505075042 21 105 1.6 8.0 0.00 0.00 0.00 83 1002.7
20260505074539 21 110 0.0 3.2 0.00 0.00 0.00 83 1002.8
20260505074036 22 91 1.6 9.7 0.00 0.00 0.00 83 1002.7
20260505073533 22 109 1.6 8.0 0.00 0.00 0.00 83 1003.2
20260505073032 22 116 1.6 11.3 0.00 0.00 0.00 82 1003.1
20260505072527 22 106 3.2 4.8 0.00 0.00 0.00 82 1003.2
20260505072024 22 91 1.6 4.8 0.00 0.00 0.00 82 1003.2
20260505071519 22 122 3.2 4.8 0.00 0.00 0.00 81 1003.2
20260505071018 22 159 3.2 8.0 0.00 0.00 0.00 81 1003.5
20260505070515 22 103 1.6 3.2 0.00 0.00 0.00 81 1003.3
20260505070010 22 121 3.2 4.8 0.00 0.00 0.00 80 1003.3
20260505065507 22 105 1.6 4.8 0.00 0.00 0.00 80 1003.5
20260505065003 22 95 1.6 9.7 0.00 0.00 0.00 80 1003.6
20260505064500 22 139 1.6 12.9 0.00 0.00 0.00 79 1003.8
20260505063959 22 138 3.2 8.0 0.00 0.00 0.00 79 1003.5
20260505063455 22 93 0.0 4.8 0.00 0.00 0.00 79 1003.7
20260505062951 22 85 4.8 12.9 0.00 0.00 0.00 78 1003.9
20260505062448 22 122 6.4 11.3 0.00 0.00 0.00 78 1003.7
20260505061945 22 116 3.2 8.0 0.00 0.00 0.00 78 1003.5
20260505061443 22 130 4.8 14.5 0.00 0.00 0.00 78 1003.7
20260505060940 22 126 3.2 9.7 0.00 0.00 0.00 78 1003.8
20260505060437 22 185 6.4 9.7 0.00 0.00 0.00 77 1003.7
20260505055934 22 151 3.2 11.3 0.00 0.00 0.00 77 1003.6
20260505055430 22 157 4.8 11.3 0.00 0.00 0.00 77 1003.6
20260505054927 22 105 3.2 8.0 0.00 0.00 0.00 76 1003.7
20260505054424 22 97 1.6 16.1 0.00 0.00 0.00 76 1004.0
20260505053922 22 102 1.6 9.7 0.00 0.00 0.00 76 1003.9
20260505053419 22 95 3.2 8.0 0.00 0.00 0.00 76 1003.9
20260505052916 22 133 3.2 11.3 0.00 0.00 0.00 75 1004.0
20260505052412 23 87 3.2 11.3 0.00 0.00 0.00 75 1004.2
20260505051910 23 140 6.4 12.9 0.00 0.00 0.00 75 1004.3
20260505051407 23 148 3.2 4.8 0.00 0.00 0.00 75 1004.3
20260505050905 23 115 3.2 4.8 0.00 0.00 0.00 75 1004.5
20260505050403 23 39 6.4 9.7 0.00 0.00 0.00 74 1004.2
20260505041330 23 123 3.2 9.7 0.00 0.00 0.00 72 1004.1
20260505040827 23 175 6.4 12.9 0.00 0.00 0.00 72 1004.4
20260505040325 23 146 3.2 4.8 0.00 0.00 0.00 72 1004.3
20260505035822 23 84 1.6 4.8 0.00 0.00 0.00 72 1004.5
20260505035317 23 117 1.6 3.2 0.00 0.00 0.00 71 1004.3
20260505034815 23 107 4.8 9.7 0.00 0.00 0.00 71 1004.6
20260505034311 23 113 4.8 8.0 0.00 0.00 0.00 71 1004.2
20260505033808 23 109 3.2 3.2 0.00 0.00 0.00 71 1004.4
20260505033305 23 78 1.6 9.7 0.00 0.00 0.00 71 1004.6
20260505032804 23 123 4.8 16.1 0.00 0.00 0.00 71 1004.6
20260505032259 23 78 1.6 3.2 0.00 0.00 0.00 70 1004.4
20260505031757 23 152 8.0 12.9 0.00 0.00 0.00 70 1004.4
20260505031253 23 130 6.4 9.7 0.00 0.00 0.00 70 1004.5
20260505030750 23 101 1.6 8.0 0.00 0.00 0.00 70 1004.2
20260505030247 23 100 1.6 20.9 0.00 0.00 0.00 70 1004.2
20260505025742 23 103 1.6 11.3 0.00 0.00 0.00 70 1004.5
20260505025240 23 87 1.6 11.3 0.00 0.00 0.00 70 1004.6
20260505024738 23 116 1.6 4.8 0.00 0.00 0.00 70 1004.6
20260505024235 23 113 1.6 3.2 0.00 0.00 0.00 70 1004.3
20260505023732 23 115 4.8 11.3 0.00 0.00 0.00 70 1004.4
20260505023230 23 99 1.6 11.3 0.00 0.00 0.00 69 1004.5
20260505022727 23 133 3.2 9.7 0.00 0.00 0.00 69 1004.7
20260505022224 23 132 4.8 11.3 0.00 0.00 0.00 69 1004.6
20260505021720 24 111 3.2 12.9 0.00 0.00 0.00 69 1004.4
20260505021218 24 74 1.6 4.8 0.00 0.00 0.00 69 1004.4
20260505020713 24 95 0.0 3.2 0.00 0.00 0.00 68 1004.4
20260505020209 24 92 3.2 3.2 0.00 0.00 0.00 68 1004.4
20260505015706 24 79 1.6 4.8 0.00 0.00 0.00 68 1004.5
20260505015203 24 122 1.6 8.0 0.00 0.00 0.00 67 1004.5
20260505014700 24 130 6.4 12.9 0.00 0.00 0.00 67 1004.3
20260505014157 24 97 3.2 11.3 0.00 0.00 0.00 67 1004.4
20260505013654 24 116 4.8 12.9 0.00 0.00 0.00 67 1004.6
20260505013151 24 141 4.8 14.5 0.00 0.00 0.00 67 1004.4
20260505012649 25 90 1.6 8.0 0.00 0.00 0.00 67 1004.2
20260505012147 25 93 1.6 12.9 0.00 0.00 0.00 66 1004.3
20260505011642 25 117 1.6 17.7 0.00 0.00 0.00 66 1004.3
20260505011139 25 106 3.2 17.7 0.00 0.00 0.00 66 1004.4
20260505010640 25 80 1.6 4.8 0.00 0.00 0.00 66 1004.4
20260505010137 25 154 4.8 14.5 0.00 0.00 0.00 65 1004.1
20260505005633 25 165 4.8 20.9 0.00 0.00 0.00 65 1004.3
20260505005130 25 96 3.2 14.5 0.00 0.00 0.00 65 1004.2
20260505004627 25 89 1.6 8.0 0.00 0.00 0.00 64 1004.2
20260505004124 25 106 8.0 17.7 0.00 0.00 0.00 64 1004.0
20260505003621 25 146 4.8 8.0 0.00 0.00 0.00 64 1004.2
20260505003119 25 134 8.0 12.9 0.00 0.00 0.00 63 1004.3
20260505002614 25 80 1.6 8.0 0.00 0.00 0.00 63 1004.3
20260505002113 25 91 3.2 4.8 0.00 0.00 0.00 63 1004.6
20260505001609 25 135 3.2 9.7 0.00 0.00 0.00 63 1004.5
20260505001107 25 190 8.0 14.5 0.00 0.00 0.00 62 1004.3
20260505000604 25 150 3.2 8.0 0.00 0.00 0.00 62 1004.3
20260504235558 26 98 3.2 9.7 0.00 0.00 0.00 61 1004.5
20260504235055 26 163 8.0 11.3 0.00 0.00 0.00 61 1004.2
20260504234552 26 144 3.2 12.9 0.00 0.00 0.00 61 1004.7
20260504234049 26 135 8.0 14.5 0.00 0.00 0.00 61 1004.5
20260504233544 26 100 3.2 8.0 0.00 0.00 0.00 61 1004.5
20260504233041 26 155 4.8 8.0 0.00 0.00 0.00 61 1004.6
20260504232538 26 130 6.4 11.3 0.00 0.00 0.00 61 1004.6
20260504232036 26 169 6.4 16.1 0.00 0.00 0.00 60 1004.5
20260504231532 26 156 4.8 14.5 0.00 0.00 0.00 60 1004.6